Location: Monrovia
(34.7865°N, 86.7139°W)
Time: 14:48:33
(UTC+00:00)

NPP - Pass Details

Date: 14 July 2020
Orbit: 826 x 828 km, 98.7° (Epoch: 13 August)

Event Time Altitude Azimuth Distance (km) Brightness Sun altitude
Rises 08:07:03 0° 3° (N) 3,370 7.7 -25.2°
Reaches altitude 10° 08:09:32 10° 356° (N) 2,433 6.7 -25.0°
Maximum altitude 08:14:29 39° 289° (WNW) 1,229 4.4 -24.4°
Enters shadow 08:14:50 38° 280° (W) 1,237 4.3 -24.3°
